Location: Palmerston North
(40.3500°S, 175.6170°E)
Time: 00:09:00
(UTC+13:00)

ISS - Pass Details

Date: 01 February 2019
Orbit: 403 x 411 km, 51.6° (Epoch: 22 February)

Event Time Altitude Azimuth Distance (km) Brightness Sun altitude
Exits shadow 03:46:55 18° 81° (E) 1,105 -1.4 -24.2°
Drops below altitude 10° 03:48:17 10° 101° (E) 1,496 -0.4 -24.1°
Sets 03:50:40 0° 116° (ESE) 2,363 1.1 -23.8°
